owner,sensor,date,latitude,longitude,vertical_datum,direction_of_sea_water_velocity,sea_water_speed,upward_sea_water_velocity,qcFlag 
TABS,ioos:station:wmo:42050:1,2015-05-01T00:00:00Z,28.8425,-94.2433,2.0,226.9113793,15.89753755,-99999.0,'11111222,11111222,99999999' 
TABS,ioos:station:wmo:42050:1,2015-05-01T00:30:00Z,28.8425,-94.2433,2.0,225.7950251,14.77288394,-99999.0,'11111222,11111222,99999999' 
TABS,ioos:station:wmo:42050:1,2015-05-01T01:00:00Z,28.8425,-94.2433,2.0,231.9214573,13.84707911,-99999.0,'11111222,11111222,99999999' 
TABS,ioos:station:wmo:42050:1,2015-05-01T01:30:00Z,28.8425,-94.2433,2.0,231.0769241,14.2931732,-99999.0,'11111222,11111222,99999999' 
TABS,ioos:station:wmo:42050:1,2015-05-01T02:00:00Z,28.8425,-94.2433,2.0,238.382162,15.0311144,-99999.0,'11111222,11111222,99999999' 
TABS,ioos:station:wmo:42050:1,2015-05-01T02:30:00Z,28.8425,-94.2433,2.0,253.0477245,11.72965473,-99999.0,'11111222,11111222,99999999' 
TABS,ioos:station:wmo:42050:1,2015-05-01T03:00:00Z,28.8425,-94.2433,2.0,267.724128,10.57834108,-99999.0,'11111222,11111222,99999999' 
TABS,ioos:station:wmo:42050:1,2015-05-01T03:30:00Z,28.8425,-94.2433,2.0,291.6176343,8.088930708,-99999.0,'11133222,11111222,99999999' 
TABS,ioos:station:wmo:42050:1,2015-05-01T04:00:00Z,28.8425,-94.2433,2.0,299.6318883,8.777955343,-99999.0,'11133222,11111222,99999999' 
TABS,ioos:station:wmo:42050:1,2015-05-01T04:30:00Z,28.8425,-94.2433,2.0,307.2329465,8.214164595,-99999.0,'11133222,11111222,99999999' 
TABS,ioos:station:wmo:42050:1,2015-05-01T05:00:00Z,28.8425,-94.2433,2.0,320.5245934,8.006278786,-99999.0,'11133222,11111222,99999999' 
TABS,ioos:station:wmo:42050:1,2015-05-01T05:30:00Z,28.8425,-94.2433,2.0,330.6713705,6.492149105,-99999.0,'11133222,11111222,99999999' 
TABS,ioos:station:wmo:42050:1,2015-05-01T06:00:00Z,28.8425,-94.2433,2.0,333.8202199,7.321051837,-99999.0,'11133222,11111222,99999999' 
TABS,ioos:station:wmo:42050:1,2015-05-01T06:30:00Z,28.8425,-94.2433,2.0,337.0364911,4.485465416,-99999.0,'11133222,11111222,99999999' 
TABS,ioos:station:wmo:42050:1,2015-05-01T07:00:00Z,28.8425,-94.2433,2.0,5.85107311,2.844819854,-99999.0,'11133222,11111222,99999999' 
TABS,ioos:station:wmo:42050:1,2015-05-01T07:30:00Z,28.8425,-94.2433,2.0,240.9450429,0.514781507,-99999.0,'11133222,11111222,99999999' 
TABS,ioos:station:wmo:42050:1,2015-05-01T08:00:00Z,28.8425,-94.2433,2.0,77.05017581,1.918801709,-99999.0,'11133222,11111222,99999999' 
TABS,ioos:station:wmo:42050:1,2015-05-01T08:30:00Z,28.8425,-94.2433,2.0,152.4076978,4.49074604,-99999.0,'11133222,11111222,99999999' 
TABS,ioos:station:wmo:42050:1,2015-05-01T09:00:00Z,28.8425,-94.2433,2.0,168.9817802,5.389341333,-99999.0,'11133222,11111222,99999999' 
TABS,ioos:station:wmo:42050:1,2015-05-01T09:30:00Z,28.8425,-94.2433,2.0,157.9602842,7.595004937,-99999.0,'11133222,11111222,99999999' 
TABS,ioos:station:wmo:42050:1,2015-05-01T10:00:00Z,28.8425,-94.2433,2.0,161.5248729,9.056765427,-99999.0,'11133222,11111222,99999999' 
TABS,ioos:station:wmo:42050:1,2015-05-01T10:30:00Z,28.8425,-94.2433,2.0,168.8056321,12.62009905,-99999.0,'11111222,11111222,99999999' 
TABS,ioos:station:wmo:42050:1,2015-05-01T11:00:00Z,28.8425,-94.2433,2.0,172.4184846,11.36938433,-99999.0,'11111222,11111222,99999999' 
TABS,ioos:station:wmo:42050:1,2015-05-01T11:30:00Z,28.8425,-94.2433,2.0,171.7704716,13.06452448,-99999.0,'11111222,11111222,99999999' 
TABS,ioos:station:wmo:42050:1,2015-05-01T12:00:00Z,28.8425,-94.2433,2.0,171.09521,11.82249128,-99999.0,'11111222,11111222,99999999' 
TABS,ioos:station:wmo:42050:1,2015-05-01T12:30:00Z,28.8425,-94.2433,2.0,169.6143156,13.97901642,-99999.0,'11111222,11111222,99999999' 
TABS,ioos:station:wmo:42050:1,2015-05-01T13:00:00Z,28.8425,-94.2433,2.0,169.5995506,12.35295106,-99999.0,'11111222,11111222,99999999' 
TABS,ioos:station:wmo:42050:1,2015-05-01T13:30:00Z,28.8425,-94.2433,2.0,171.3690079,13.59393983,-99999.0,'11111222,11111222,99999999' 
TABS,ioos:station:wmo:42050:1,2015-05-01T14:00:00Z,28.8425,-94.2433,2.0,165.1403934,13.84293683,-99999.0,'11111222,11111222,99999999' 
TABS,ioos:station:wmo:42050:1,2015-05-01T14:30:00Z,28.8425,-94.2433,2.0,172.4311377,14.57699901,-99999.0,'11111222,11111222,99999999' 
TABS,ioos:station:wmo:42050:1,2015-05-01T15:00:00Z,28.8425,-94.2433,2.0,166.7139342,15.18645778,-99999.0,'11111222,11111222,99999999' 
TABS,ioos:station:wmo:42050:1,2015-05-01T15:30:00Z,28.8425,-94.2433,2.0,172.593252,15.90268531,-99999.0,'11111222,11111222,99999999' 
TABS,ioos:station:wmo:42050:1,2015-05-01T16:00:00Z,28.8425,-94.2433,2.0,167.8410147,15.62040332,-99999.0,'11111222,11111222,99999999' 
TABS,ioos:station:wmo:42050:1,2015-05-01T16:30:00Z,28.8425,-94.2433,2.0,170.5851432,17.78962057,-99999.0,'11111222,11111222,99999999' 
TABS,ioos:station:wmo:42050:1,2015-05-01T17:00:00Z,28.8425,-94.2433,2.0,180.4586693,17.48056063,-99999.0,'11111222,11111222,99999999' 
TABS,ioos:station:wmo:42050:1,2015-05-01T17:30:00Z,28.8425,-94.2433,2.0,183.6893409,20.2018712,-99999.0,'11111222,11111222,99999999' 
TABS,ioos:station:wmo:42050:1,2015-05-01T18:00:00Z,28.8425,-94.2433,2.0,189.4569648,18.37980685,-99999.0,'11111222,11111222,99999999' 
TABS,ioos:station:wmo:42050:1,2015-05-01T18:30:00Z,28.8425,-94.2433,2.0,186.711397,18.73841509,-99999.0,'11111222,11111222,99999999' 
TABS,ioos:station:wmo:42050:1,2015-05-01T19:00:00Z,28.8425,-94.2433,2.0,193.947273,18.79410812,-99999.0,'11111222,11111222,99999999' 
TABS,ioos:station:wmo:42050:1,2015-05-01T19:30:00Z,28.8425,-94.2433,2.0,194.2952239,20.37077564,-99999.0,'11111222,11111222,99999999' 
TABS,ioos:station:wmo:42050:1,2015-05-01T20:00:00Z,28.8425,-94.2433,2.0,196.0893559,17.46407742,-99999.0,'11111222,11111222,99999999' 
TABS,ioos:station:wmo:42050:1,2015-05-01T20:30:00Z,28.8425,-94.2433,2.0,200.6410334,20.45296311,-99999.0,'11111222,11111222,99999999' 
TABS,ioos:station:wmo:42050:1,2015-05-01T21:00:00Z,28.8425,-94.2433,2.0,199.3232281,23.45110872,-99999.0,'11111222,11111222,99999999' 
TABS,ioos:station:wmo:42050:1,2015-05-01T21:30:00Z,28.8425,-94.2433,2.0,200.7617515,23.44232284,-99999.0,'11111222,11111222,99999999' 
TABS,ioos:station:wmo:42050:1,2015-05-01T22:00:00Z,28.8425,-94.2433,2.0,201.7793858,24.44493608,-99999.0,'11111222,11111222,99999999' 
TABS,ioos:station:wmo:42050:1,2015-05-01T22:30:00Z,28.8425,-94.2433,2.0,192.4010164,19.97609071,-99999.0,'11111222,11111222,99999999' 
TABS,ioos:station:wmo:42050:1,2015-05-01T23:00:00Z,28.8425,-94.2433,2.0,198.8993536,17.93702874,-99999.0,'11111222,11111222,99999999' 
TABS,ioos:station:wmo:42050:1,2015-05-01T23:30:00Z,28.8425,-94.2433,2.0,194.9330477,19.67447585,-99999.0,'11111222,11111222,99999999' 
TABS,ioos:station:wmo:42050:1,2015-05-02T00:00:00Z,28.8425,-94.2433,2.0,197.8356851,20.56857798,-99999.0,'11111222,11111222,99999999' 
TABS,ioos:station:wmo:42050:1,2015-05-02T00:30:00Z,28.8425,-94.2433,2.0,201.383055,20.10391255,-99999.0,'11111222,11111222,99999999' 
TABS,ioos:station:wmo:42050:1,2015-05-02T01:00:00Z,28.8425,-94.2433,2.0,211.6538965,16.08258997,-99999.0,'11111222,11111222,99999999' 
TABS,ioos:station:wmo:42050:1,2015-05-02T01:30:00Z,28.8425,-94.2433,2.0,224.8803683,16.97767063,-99999.0,'11111222,11111222,99999999' 
TABS,ioos:station:wmo:42050:1,2015-05-02T02:00:00Z,28.8425,-94.2433,2.0,239.7744969,14.50141028,-99999.0,'11111222,11111222,99999999' 
TABS,ioos:station:wmo:42050:1,2015-05-02T02:30:00Z,28.8425,-94.2433,2.0,254.954883,10.74841849,-99999.0,'11111222,11111222,99999999' 
TABS,ioos:station:wmo:42050:1,2015-05-02T03:00:00Z,28.8425,-94.2433,2.0,284.574603,8.78260212,-99999.0,'11133222,11111222,99999999' 
TABS,ioos:station:wmo:42050:1,2015-05-02T03:30:00Z,28.8425,-94.2433,2.0,296.5104238,9.319935622,-99999.0,'11133222,11111222,99999999' 
TABS,ioos:station:wmo:42050:1,2015-05-02T04:00:00Z,28.8425,-94.2433,2.0,326.5970561,8.864220214,-99999.0,'11133222,11111222,99999999' 
TABS,ioos:station:wmo:42050:1,2015-05-02T04:30:00Z,28.8425,-94.2433,2.0,340.8423231,12.28010179,-99999.0,'11111222,11111222,99999999' 
TABS,ioos:station:wmo:42050:1,2015-05-02T05:00:00Z,28.8425,-94.2433,2.0,353.5721737,11.52243898,-99999.0,'11111222,11111222,99999999' 
TABS,ioos:station:wmo:42050:1,2015-05-02T05:30:00Z,28.8425,-94.2433,2.0,5.792993408,11.7902078,-99999.0,'11111222,11111222,99999999' 
TABS,ioos:station:wmo:42050:1,2015-05-02T06:00:00Z,28.8425,-94.2433,2.0,15.38186105,12.70509347,-99999.0,'11111222,11111222,99999999' 
TABS,ioos:station:wmo:42050:1,2015-05-02T06:30:00Z,28.8425,-94.2433,2.0,20.72152045,13.79218619,-99999.0,'11111222,11111222,99999999' 
TABS,ioos:station:wmo:42050:1,2015-05-02T07:00:00Z,28.8425,-94.2433,2.0,28.76234591,14.46457742,-99999.0,'11111222,11111222,99999999' 
TABS,ioos:station:wmo:42050:1,2015-05-02T07:30:00Z,28.8425,-94.2433,2.0,41.72080508,13.10293097,-99999.0,'11111222,11111222,99999999' 
TABS,ioos:station:wmo:42050:1,2015-05-02T08:00:00Z,28.8425,-94.2433,2.0,54.51043988,13.86602322,-99999.0,'11111222,11111222,99999999' 
TABS,ioos:station:wmo:42050:1,2015-05-02T08:30:00Z,28.8425,-94.2433,2.0,65.70277782,13.90134166,-99999.0,'11111222,11111222,99999999' 
TABS,ioos:station:wmo:42050:1,2015-05-02T09:00:00Z,28.8425,-94.2433,2.0,87.63265136,12.83095086,-99999.0,'11111222,11111222,99999999' 
TABS,ioos:station:wmo:42050:1,2015-05-02T09:30:00Z,28.8425,-94.2433,2.0,107.0869075,18.68474511,-99999.0,'11111222,11111222,99999999' 
TABS,ioos:station:wmo:42050:1,2015-05-02T10:00:00Z,28.8425,-94.2433,2.0,111.411149,17.72317409,-99999.0,'11111222,11111222,99999999' 
TABS,ioos:station:wmo:42050:1,2015-05-02T10:30:00Z,28.8425,-94.2433,2.0,113.6669498,18.30998088,-99999.0,'11111222,11111222,99999999' 
TABS,ioos:station:wmo:42050:1,2015-05-02T11:00:00Z,28.8425,-94.2433,2.0,118.9846737,19.91428884,-99999.0,'11111222,11111222,99999999' 
TABS,ioos:station:wmo:42050:1,2015-05-02T11:30:00Z,28.8425,-94.2433,2.0,131.1312397,18.75986407,-99999.0,'11111222,11111222,99999999' 
TABS,ioos:station:wmo:42050:1,2015-05-02T12:00:00Z,28.8425,-94.2433,2.0,136.0098654,23.26742788,-99999.0,'11111222,11111222,99999999' 
TABS,ioos:station:wmo:42050:1,2015-05-02T12:30:00Z,28.8425,-94.2433,2.0,139.3264055,23.24520166,-99999.0,'11111222,11111222,99999999' 
TABS,ioos:station:wmo:42050:1,2015-05-02T13:00:00Z,28.8425,-94.2433,2.0,147.0717986,22.31478882,-99999.0,'11111222,11111222,99999999' 
TABS,ioos:station:wmo:42050:1,2015-05-02T13:30:00Z,28.8425,-94.2433,2.0,150.5039738,21.69139922,-99999.0,'11111222,11111222,99999999' 
TABS,ioos:station:wmo:42050:1,2015-05-02T14:00:00Z,28.8425,-94.2433,2.0,154.305409,19.71992393,-99999.0,'11111222,11111222,99999999' 
TABS,ioos:station:wmo:42050:1,2015-05-02T14:30:00Z,28.8425,-94.2433,2.0,153.3970977,20.38847223,-99999.0,'11111222,11111222,99999999' 
TABS,ioos:station:wmo:42050:1,2015-05-02T15:00:00Z,28.8425,-94.2433,2.0,162.0753207,18.81313637,-99999.0,'11111222,11111222,99999999' 
TABS,ioos:station:wmo:42050:1,2015-05-02T15:30:00Z,28.8425,-94.2433,2.0,164.7699308,17.92969883,-99999.0,'11111222,11111222,99999999' 
TABS,ioos:station:wmo:42050:1,2015-05-02T16:00:00Z,28.8425,-94.2433,2.0,170.3977033,16.84601437,-99999.0,'11111222,11111222,99999999' 
TABS,ioos:station:wmo:42050:1,2015-05-02T16:30:00Z,28.8425,-94.2433,2.0,174.7242589,15.98772342,-99999.0,'11111222,11111222,99999999' 
TABS,ioos:station:wmo:42050:1,2015-05-02T17:00:00Z,28.8425,-94.2433,2.0,178.7330161,16.28397986,-99999.0,'11111222,11111222,99999999' 
TABS,ioos:station:wmo:42050:1,2015-05-02T17:30:00Z,28.8425,-94.2433,2.0,185.8549073,16.56642689,-99999.0,'11111222,11111222,99999999' 
TABS,ioos:station:wmo:42050:1,2015-05-02T18:00:00Z,28.8425,-94.2433,2.0,185.8699497,18.5774164,-99999.0,'11111222,11111222,99999999' 
TABS,ioos:station:wmo:42050:1,2015-05-02T18:30:00Z,28.8425,-94.2433,2.0,185.7371267,21.30673368,-99999.0,'11111222,11111222,99999999' 
TABS,ioos:station:wmo:42050:1,2015-05-02T19:00:00Z,28.8425,-94.2433,2.0,194.3672194,23.49481858,-99999.0,'11111222,11111222,99999999' 
TABS,ioos:station:wmo:42050:1,2015-05-02T19:30:00Z,28.8425,-94.2433,2.0,195.6268246,24.72390948,-99999.0,'11111222,11111222,99999999' 
TABS,ioos:station:wmo:42050:1,2015-05-02T20:00:00Z,28.8425,-94.2433,2.0,198.3735763,26.6801518,-99999.0,'11111222,11111222,99999999' 
TABS,ioos:station:wmo:42050:1,2015-05-02T20:30:00Z,28.8425,-94.2433,2.0,200.8250661,30.63117693,-99999.0,'11111222,11111222,99999999' 
TABS,ioos:station:wmo:42050:1,2015-05-02T21:00:00Z,28.8425,-94.2433,2.0,208.5930181,31.96896777,-99999.0,'11111222,11111222,99999999' 
TABS,ioos:station:wmo:42050:1,2015-05-02T21:30:00Z,28.8425,-94.2433,2.0,215.0807899,32.67592386,-99999.0,'11111222,11111222,99999999' 
TABS,ioos:station:wmo:42050:1,2015-05-02T22:00:00Z,28.8425,-94.2433,2.0,221.1490545,33.90452772,-99999.0,'11111222,11111222,99999999' 
TABS,ioos:station:wmo:42050:1,2015-05-02T22:30:00Z,28.8425,-94.2433,2.0,229.4607017,31.90940457,-99999.0,'11111222,11111222,99999999' 
TABS,ioos:station:wmo:42050:1,2015-05-02T23:00:00Z,28.8425,-94.2433,2.0,231.1810173,36.05285148,-99999.0,'11111222,11111222,99999999' 
TABS,ioos:station:wmo:42050:1,2015-05-02T23:30:00Z,28.8425,-94.2433,2.0,238.2149473,37.70440425,-99999.0,'11111222,11111222,99999999' 
TABS,ioos:station:wmo:42050:1,2015-05-03T00:00:00Z,28.8425,-94.2433,2.0,244.2757943,37.16298293,-99999.0,'11111222,11111222,99999999' 
TABS,ioos:station:wmo:42050:1,2015-05-03T00:30:00Z,28.8425,-94.2433,2.0,247.1683449,35.23023985,-99999.0,'11111222,11111222,99999999' 
TABS,ioos:station:wmo:42050:1,2015-05-03T01:00:00Z,28.8425,-94.2433,2.0,257.8064927,34.98931408,-99999.0,'11111222,11111222,99999999' 
TABS,ioos:station:wmo:42050:1,2015-05-03T01:30:00Z,28.8425,-94.2433,2.0,259.8528926,35.64753147,-99999.0,'11111222,11111222,99999999' 
TABS,ioos:station:wmo:42050:1,2015-05-03T02:00:00Z,28.8425,-94.2433,2.0,264.5777008,35.34814988,-99999.0,'11111222,11111222,99999999' 
TABS,ioos:station:wmo:42050:1,2015-05-03T02:30:00Z,28.8425,-94.2433,2.0,276.9640012,33.90006785,-99999.0,'11111222,11111222,99999999' 
TABS,ioos:station:wmo:42050:1,2015-05-03T03:00:00Z,28.8425,-94.2433,2.0,289.1903652,29.99680816,-99999.0,'11111222,11111222,99999999' 
TABS,ioos:station:wmo:42050:1,2015-05-03T03:30:00Z,28.8425,-94.2433,2.0,299.9217203,28.18702716,-99999.0,'11111222,11111222,99999999' 
TABS,ioos:station:wmo:42050:1,2015-05-03T04:00:00Z,28.8425,-94.2433,2.0,313.1548156,24.81110437,-99999.0,'11111222,11111222,99999999' 
TABS,ioos:station:wmo:42050:1,2015-05-03T04:30:00Z,28.8425,-94.2433,2.0,318.8421618,25.22261089,-99999.0,'11111222,11111222,99999999' 
TABS,ioos:station:wmo:42050:1,2015-05-03T05:00:00Z,28.8425,-94.2433,2.0,327.975098,24.5336524,-99999.0,'11111222,11111222,99999999' 
TABS,ioos:station:wmo:42050:1,2015-05-03T05:30:00Z,28.8425,-94.2433,2.0,340.6658566,23.16653837,-99999.0,'11111222,11111222,99999999' 
TABS,ioos:station:wmo:42050:1,2015-05-03T06:00:00Z,28.8425,-94.2433,2.0,340.2370723,16.91640624,-99999.0,'11111222,11111222,99999999' 
TABS,ioos:station:wmo:42050:1,2015-05-03T06:30:00Z,28.8425,-94.2433,2.0,348.4998797,20.06279143,-99999.0,'11111222,11111222,99999999' 
TABS,ioos:station:wmo:42050:1,2015-05-03T07:00:00Z,28.8425,-94.2433,2.0,355.6160157,18.18320654,-99999.0,'11111222,11111222,99999999' 
TABS,ioos:station:wmo:42050:1,2015-05-03T07:30:00Z,28.8425,-94.2433,2.0,352.1531298,15.74746011,-99999.0,'11111222,11111222,99999999' 
TABS,ioos:station:wmo:42050:1,2015-05-03T08:00:00Z,28.8425,-94.2433,2.0,2.287866473,15.53237908,-99999.0,'11111222,11111222,99999999' 
TABS,ioos:station:wmo:42050:1,2015-05-03T08:30:00Z,28.8425,-94.2433,2.0,4.062984671,10.7269567,-99999.0,'11111222,11111222,99999999' 
TABS,ioos:station:wmo:42050:1,2015-05-03T09:00:00Z,28.8425,-94.2433,2.0,17.98658093,7.675083061,-99999.0,'11133222,11111222,99999999' 
TABS,ioos:station:wmo:42050:1,2015-05-03T09:30:00Z,28.8425,-94.2433,2.0,28.44597921,7.221918028,-99999.0,'11133222,11111222,99999999' 
TABS,ioos:station:wmo:42050:1,2015-05-03T10:00:00Z,28.8425,-94.2433,2.0,56.28164708,5.602472668,-99999.0,'11133222,11111222,99999999' 
TABS,ioos:station:wmo:42050:1,2015-05-03T10:30:00Z,28.8425,-94.2433,2.0,92.00335186,4.862972342,-99999.0,'11133222,11111222,99999999' 
TABS,ioos:station:wmo:42050:1,2015-05-03T11:00:00Z,28.8425,-94.2433,2.0,92.68042325,5.345848857,-99999.0,'11133222,11111222,99999999' 
TABS,ioos:station:wmo:42050:1,2015-05-03T11:30:00Z,28.8425,-94.2433,2.0,99.72121989,5.093132631,-99999.0,'11133222,11111222,99999999' 
TABS,ioos:station:wmo:42050:1,2015-05-03T12:00:00Z,28.8425,-94.2433,2.0,100.738872,5.313049972,-99999.0,'11133222,11111222,99999999' 
TABS,ioos:station:wmo:42050:1,2015-05-03T12:30:00Z,28.8425,-94.2433,2.0,137.5484639,4.770618409,-99999.0,'11133222,11111222,99999999' 
TABS,ioos:station:wmo:42050:1,2015-05-03T13:00:00Z,28.8425,-94.2433,2.0,134.7601654,5.07,-99999.0,'11133222,11111222,99999999' 
TABS,ioos:station:wmo:42050:1,2015-05-03T13:30:00Z,28.8425,-94.2433,2.0,141.8671088,5.263278446,-99999.0,'11133222,11111222,99999999' 
TABS,ioos:station:wmo:42050:1,2015-05-03T14:00:00Z,28.8425,-94.2433,2.0,147.9288612,6.478711292,-99999.0,'11133222,11111222,99999999' 
TABS,ioos:station:wmo:42050:1,2015-05-03T14:30:00Z,28.8425,-94.2433,2.0,141.6047148,6.762396025,-99999.0,'11133222,11111222,99999999' 
TABS,ioos:station:wmo:42050:1,2015-05-03T15:00:00Z,28.8425,-94.2433,2.0,138.7609302,7.114674975,-99999.0,'11133222,11111222,99999999' 
TABS,ioos:station:wmo:42050:1,2015-05-03T15:30:00Z,28.8425,-94.2433,2.0,160.4875485,5.71840887,-99999.0,'11133222,11111222,99999999' 
TABS,ioos:station:wmo:42050:1,2015-05-03T16:00:00Z,28.8425,-94.2433,2.0,182.4764312,5.785404048,-99999.0,'11133222,11111222,99999999' 
TABS,ioos:station:wmo:42050:1,2015-05-03T16:30:00Z,28.8425,-94.2433,2.0,192.9281127,7.777146006,-99999.0,'11133222,11111222,99999999' 
TABS,ioos:station:wmo:42050:1,2015-05-03T17:00:00Z,28.8425,-94.2433,2.0,217.7448651,8.903038807,-99999.0,'11133222,11111222,99999999' 
TABS,ioos:station:wmo:42050:1,2015-05-03T17:30:00Z,28.8425,-94.2433,2.0,224.5672726,11.24331802,-99999.0,'11111222,11111222,99999999' 
TABS,ioos:station:wmo:42050:1,2015-05-03T18:00:00Z,28.8425,-94.2433,2.0,227.0461464,13.66294624,-99999.0,'11111222,11111222,99999999' 
TABS,ioos:station:wmo:42050:1,2015-05-03T18:30:00Z,28.8425,-94.2433,2.0,240.3977282,17.89578721,-99999.0,'11111222,11111222,99999999' 
TABS,ioos:station:wmo:42050:1,2015-05-03T19:00:00Z,28.8425,-94.2433,2.0,239.4622825,19.8189253,-99999.0,'11111222,11111222,99999999' 
TABS,ioos:station:wmo:42050:1,2015-05-03T19:30:00Z,28.8425,-94.2433,2.0,243.2519023,22.4412923,-99999.0,'11111222,11111222,99999999' 
TABS,ioos:station:wmo:42050:1,2015-05-03T20:00:00Z,28.8425,-94.2433,2.0,242.7179341,25.74362834,-99999.0,'11111222,11111222,99999999' 
TABS,ioos:station:wmo:42050:1,2015-05-03T20:30:00Z,28.8425,-94.2433,2.0,241.0835128,26.9270366,-99999.0,'11111222,11111222,99999999' 
TABS,ioos:station:wmo:42050:1,2015-05-03T21:00:00Z,28.8425,-94.2433,2.0,246.2086653,28.82986819,-99999.0,'11111222,11111222,99999999' 
TABS,ioos:station:wmo:42050:1,2015-05-03T21:30:00Z,28.8425,-94.2433,2.0,243.7764551,31.47992535,-99999.0,'11111222,11111222,99999999' 
TABS,ioos:station:wmo:42050:1,2015-05-03T22:00:00Z,28.8425,-94.2433,2.0,240.1406327,33.00074696,-99999.0,'11111222,11111222,99999999' 
TABS,ioos:station:wmo:42050:1,2015-05-03T22:30:00Z,28.8425,-94.2433,2.0,242.0132827,34.43709773,-99999.0,'11111222,11111222,99999999' 
TABS,ioos:station:wmo:42050:1,2015-05-03T23:00:00Z,28.8425,-94.2433,2.0,248.3109311,33.0389785,-99999.0,'11111222,11111222,99999999' 
TABS,ioos:station:wmo:42050:1,2015-05-03T23:30:00Z,28.8425,-94.2433,2.0,250.1704055,33.40037874,-99999.0,'11111222,11111222,99999999' 
TABS,ioos:station:wmo:42050:1,2015-05-04T00:00:00Z,28.8425,-94.2433,2.0,251.3419358,34.97821751,-99999.0,'11111222,11111222,99999999' 
TABS,ioos:station:wmo:42050:1,2015-05-04T00:30:00Z,28.8425,-94.2433,2.0,254.3727937,34.33929819,-99999.0,'11111222,11111222,99999999' 
TABS,ioos:station:wmo:42050:1,2015-05-04T01:00:00Z,28.8425,-94.2433,2.0,254.8821991,31.74871493,-99999.0,'11111222,11111222,99999999' 
TABS,ioos:station:wmo:42050:1,2015-05-04T01:30:00Z,28.8425,-94.2433,2.0,262.7218918,35.83872347,-99999.0,'11111222,11111222,99999999' 
TABS,ioos:station:wmo:42050:1,2015-05-04T02:00:00Z,28.8425,-94.2433,2.0,268.8255108,33.18696732,-99999.0,'11111222,11111222,99999999' 
TABS,ioos:station:wmo:42050:1,2015-05-04T02:30:00Z,28.8425,-94.2433,2.0,272.8839299,29.8177531,-99999.0,'11111222,11111222,99999999' 
TABS,ioos:station:wmo:42050:1,2015-05-04T03:00:00Z,28.8425,-94.2433,2.0,279.3328689,27.56484899,-99999.0,'11111222,11111222,99999999' 
TABS,ioos:station:wmo:42050:1,2015-05-04T03:30:00Z,28.8425,-94.2433,2.0,286.0460919,27.45979242,-99999.0,'11111222,11111222,99999999' 
TABS,ioos:station:wmo:42050:1,2015-05-04T04:00:00Z,28.8425,-94.2433,2.0,292.4452575,26.95166414,-99999.0,'11111222,11111222,99999999' 
TABS,ioos:station:wmo:42050:1,2015-05-04T04:30:00Z,28.8425,-94.2433,2.0,299.1655574,24.15203925,-99999.0,'11111222,11111222,99999999' 
TABS,ioos:station:wmo:42050:1,2015-05-04T05:00:00Z,28.8425,-94.2433,2.0,308.4606999,23.77916104,-99999.0,'11111222,11111222,99999999' 
TABS,ioos:station:wmo:42050:1,2015-05-04T05:30:00Z,28.8425,-94.2433,2.0,315.6663155,23.7250353,-99999.0,'11111222,11111222,99999999' 
TABS,ioos:station:wmo:42050:1,2015-05-04T06:00:00Z,28.8425,-94.2433,2.0,320.8511783,22.12750551,-99999.0,'11111222,11111222,99999999' 
TABS,ioos:station:wmo:42050:1,2015-05-04T06:30:00Z,28.8425,-94.2433,2.0,325.332992,19.51441775,-99999.0,'11111222,11111222,99999999' 
TABS,ioos:station:wmo:42050:1,2015-05-04T07:00:00Z,28.8425,-94.2433,2.0,341.6815229,20.26707922,-99999.0,'11111222,11111222,99999999' 
TABS,ioos:station:wmo:42050:1,2015-05-04T07:30:00Z,28.8425,-94.2433,2.0,342.219963,17.15963869,-99999.0,'11111222,11111222,99999999' 
TABS,ioos:station:wmo:42050:1,2015-05-04T08:00:00Z,28.8425,-94.2433,2.0,348.2520343,15.12688005,-99999.0,'11111222,11111222,99999999' 
TABS,ioos:station:wmo:42050:1,2015-05-04T08:30:00Z,28.8425,-94.2433,2.0,1.441598688,12.32389955,-99999.0,'11111222,11111222,99999999' 
TABS,ioos:station:wmo:42050:1,2015-05-04T09:00:00Z,28.8425,-94.2433,2.0,352.7293588,11.69403267,-99999.0,'11111222,11111222,99999999' 
TABS,ioos:station:wmo:42050:1,2015-05-04T09:30:00Z,28.8425,-94.2433,2.0,9.8470393,9.063520287,-99999.0,'11133222,11111222,99999999' 
TABS,ioos:station:wmo:42050:1,2015-05-04T10:00:00Z,28.8425,-94.2433,2.0,9.230075119,4.052468384,-99999.0,'11133222,11111222,99999999' 
TABS,ioos:station:wmo:42050:1,2015-05-04T10:30:00Z,28.8425,-94.2433,2.0,26.37336213,4.007056276,-99999.0,'11133222,11111222,99999999' 
TABS,ioos:station:wmo:42050:1,2015-05-04T11:00:00Z,28.8425,-94.2433,2.0,42.58677444,1.847187051,-99999.0,'11133222,11111222,99999999' 
TABS,ioos:station:wmo:42050:1,2015-05-04T11:30:00Z,28.8425,-94.2433,2.0,146.2006664,1.456090657,-99999.0,'11133222,11111222,99999999' 
TABS,ioos:station:wmo:42050:1,2015-05-04T12:00:00Z,28.8425,-94.2433,2.0,183.9906933,4.741497654,-99999.0,'11133222,11111222,99999999' 
TABS,ioos:station:wmo:42050:1,2015-05-04T12:30:00Z,28.8425,-94.2433,2.0,174.2817358,7.627955165,-99999.0,'11133222,11111222,99999999' 
TABS,ioos:station:wmo:42050:1,2015-05-04T13:00:00Z,28.8425,-94.2433,2.0,191.250178,11.32767408,-99999.0,'11111222,11111222,99999999' 
TABS,ioos:station:wmo:42050:1,2015-05-04T13:30:00Z,28.8425,-94.2433,2.0,203.5267985,9.619667354,-99999.0,'11133222,11111222,99999999' 
TABS,ioos:station:wmo:42050:1,2015-05-04T14:00:00Z,28.8425,-94.2433,2.0,201.3741618,12.20980753,-99999.0,'11111222,11111222,99999999' 
TABS,ioos:station:wmo:42050:1,2015-05-04T14:30:00Z,28.8425,-94.2433,2.0,205.2008543,10.89721065,-99999.0,'11111222,11111222,99999999' 
TABS,ioos:station:wmo:42050:1,2015-05-04T15:00:00Z,28.8425,-94.2433,2.0,204.5468516,9.652383125,-99999.0,'11133222,11111222,99999999' 
TABS,ioos:station:wmo:42050:1,2015-05-04T15:30:00Z,28.8425,-94.2433,2.0,215.1095134,9.962700437,-99999.0,'11133222,11111222,99999999' 
TABS,ioos:station:wmo:42050:1,2015-05-04T16:00:00Z,28.8425,-94.2433,2.0,212.2618834,9.460576092,-99999.0,'11133222,11111222,99999999' 